• In United Kingdom
  • List of Countries
  • For 7 days
  • Water Temperature
  • Satellite Maps
  • Weather Map
  • Weather Widgets
  • user-avatar
    Login

    Hourly Weather Canberra

    Today, 23 June, Friday

    Time Temperature Precipitation Wind Pressure Humidity
    00:00 +3°C° 0 mm 1 mps 712 mmHg 96%
    01:00 +2°C° 0 mm 1 mps 712 mmHg 95%
    02:00 +2°C° 0 mm 1 mps 711 mmHg 94%
    03:00 +2°C° 0 mm 1 mps 711 mmHg 93%
    04:00 +2°C° 0 mm 1 mps 711 mmHg 93%
    05:00 +2°C° 0 mm 1 mps 711 mmHg 92%
    06:00 +2°C° 0 mm 1 mps 711 mmHg 91%
    07:00 +2°C° 0 mm 1 mps 710 mmHg 89%
    08:00 +4°C° 0 mm 2 mps 710 mmHg 80%
    09:00 +7°C° 0 mm 2 mps 710 mmHg 71%
    10:00 +9°C° 0 mm 2 mps 711 mmHg 62%
    11:00 +10°C° 0 mm 3 mps 710 mmHg 57%
    12:00 +12°C° 0 mm 3 mps 709 mmHg 53%
    13:00 +13°C° 0 mm 4 mps 709 mmHg 48%
    14:00 +12°C° 0 mm 4 mps 708 mmHg 52%
    15:00 +12°C° 0 mm 4 mps 708 mmHg 56%
    16:00 +11°C° 0 mm 3 mps 707 mmHg 61%
    17:00 +9°C° 0 mm 3 mps 707 mmHg 69%
    18:00 +8°C° 0 mm 3 mps 708 mmHg 77%
    19:00 +5°C° 0 mm 3 mps 708 mmHg 86%
    20:00 +5°C° 0 mm 3 mps 708 mmHg 83%
    21:00 +5°C° 0 mm 3 mps 708 mmHg 80%
    22:00 +5°C° 0 mm 3 mps 707 mmHg 77%
    23:00 +4°C° 0 mm 3 mps 707 mmHg 77%

    Tomorrow, 24 June, Saturday

    Time Temperature Precipitation Wind Pressure Humidity
    00:00 +4°C° 0 mm 3 mps 707 mmHg 78%
    01:00 +5°C° 0 mm 2 mps 707 mmHg 78%
    02:00 +4°C° 0 mm 2 mps 707 mmHg 82%
    03:00 +3°C° 0 mm 2 mps 707 mmHg 85%
    04:00 +3°C° 0 mm 2 mps 707 mmHg 88%
    05:00 +2°C° 0 mm 2 mps 707 mmHg 89%
    06:00 +2°C° 0 mm 2 mps 707 mmHg 91%
    07:00 +3°C° 0 mm 1 mps 708 mmHg 93%
    08:00 +4°C° 0 mm 2 mps 708 mmHg 83%
    09:00 +6°C° 0 mm 2 mps 709 mmHg 74%
    10:00 +8°C° 0 mm 2 mps 709 mmHg 65%
    11:00 +9°C° 0 mm 2 mps 709 mmHg 59%
    12:00 +10°C° 0 mm 3 mps 709 mmHg 54%
    13:00 +12°C° 0 mm 3 mps 709 mmHg 48%
    14:00 +11°C° 0 mm 3 mps 709 mmHg 51%
    15:00 +10°C° 0 mm 3 mps 709 mmHg 55%
    16:00 +10°C° 0 mm 3 mps 708 mmHg 58%
    17:00 +8°C° 0 mm 2 mps 709 mmHg 69%
    18:00 +6°C° 0 mm 2 mps 709 mmHg 81%
    19:00 +4°C° 0 mm 1 mps 709 mmHg 92%
    20:00 +4°C° 0 mm 1 mps 709 mmHg 93%
    21:00 +4°C° 0 mm 1 mps 709 mmHg 95%
    22:00 +3°C° 0 mm 1 mps 709 mmHg 96%
    23:00 +3°C° 0 mm 1 mps 709 mmHg 96%

    Day after tomorrow, 25 June, Sunday

    Time Temperature Precipitation Wind Pressure Humidity
    00:00 +2°C° 0 mm 1 mps 709 mmHg 96%
    01:00 +2°C° 0 mm 1 mps 709 mmHg 96%
    02:00 +2°C° 0 mm 1 mps 709 mmHg 96%
    03:00 +1°C° 0 mm 2 mps 709 mmHg 95%
    04:00 +1°C° 0 mm 2 mps 708 mmHg 94%
    05:00 +1°C° 0 mm 2 mps 709 mmHg 93%
    06:00 +1°C° 0 mm 2 mps 709 mmHg 92%
    07:00 +1°C° 0 mm 2 mps 709 mmHg 91%
    08:00 +2°C° 0 mm 3 mps 709 mmHg 82%
    09:00 +4°C° 0 mm 4 mps 709 mmHg 73%
    10:00 +6°C° 0 mm 4 mps 710 mmHg 63%
    11:00 +8°C° 0 mm 5 mps 709 mmHg 58%
    12:00 +9°C° 0 mm 5 mps 709 mmHg 54%
    13:00 +10°C° 0 mm 5 mps 709 mmHg 49%
    14:00 +10°C° 0 mm 5 mps 709 mmHg 53%
    15:00 +10°C° 0 mm 4 mps 709 mmHg 56%
    16:00 +8°C° 0 mm 4 mps 709 mmHg 60%
    17:00 +7°C° 0 mm 4 mps 709 mmHg 68%
    18:00 +5°C° 0 mm 3 mps 709 mmHg 75%
    19:00 +4°C° 0 mm 2 mps 709 mmHg 83%
    20:00 +4°C° 0 mm 2 mps 710 mmHg 84%
    21:00 +4°C° 0 mm 2 mps 710 mmHg 85%
    22:00 +4°C° 0 mm 2 mps 710 mmHg 86%
    23:00 +3°C° 0 mm 2 mps 710 mmHg 87%

    26 June, Monday

    Time Temperature Precipitation Wind Pressure Humidity
    00:00 +3°C° 0 mm 2 mps 710 mmHg 88%
    01:00 +3°C° 0 mm 2 mps 710 mmHg 88%
    02:00 +3°C° 0 mm 2 mps 710 mmHg 89%
    03:00 +3°C° 0 mm 2 mps 710 mmHg 90%
    04:00 +3°C° 0 mm 2 mps 710 mmHg 90%
    05:00 +3°C° 0 mm 2 mps 711 mmHg 91%
    06:00 +3°C° 0 mm 2 mps 711 mmHg 92%
    07:00 +3°C° 0 mm 2 mps 712 mmHg 93%
    08:00 +5°C° 0 mm 2 mps 713 mmHg 85%
    09:00 +7°C° 0 mm 2 mps 713 mmHg 77%
    10:00 +9°C° 0 mm 2 mps 714 mmHg 68%
    11:00 +10°C° 0 mm 2 mps 714 mmHg 62%
    12:00 +12°C° 0 mm 2 mps 714 mmHg 57%
    13:00 +13°C° 0 mm 2 mps 714 mmHg 51%
    14:00 +12°C° 0 mm 2 mps 714 mmHg 54%
    15:00 +12°C° 0 mm 2 mps 714 mmHg 57%
    16:00 +10°C° 0 mm 2 mps 714 mmHg 61%
    17:00 +8°C° 0 mm 2 mps 714 mmHg 70%
    18:00 +7°C° 0 mm 1 mps 714 mmHg 79%
    19:00 +5°C° 0 mm 1 mps 714 mmHg 89%
    20:00 +4°C° 0 mm 1 mps 715 mmHg 91%
    21:00 +3°C° 0 mm 1 mps 715 mmHg 93%
    22:00 +3°C° 0 mm 1 mps 715 mmHg 95%
    23:00 +2°C° 0 mm 1 mps 715 mmHg 96%

    27 June, Tuesday

    Time Temperature Precipitation Wind Pressure Humidity
    00:00 +1°C° 0 mm 1 mps 715 mmHg 97%
    01:00 -1°C° 0 mm 0 mps 714 mmHg 98%
    02:00 -2°C° 0 mm 0 mps 714 mmHg 98%
    03:00 -2°C° 0 mm 0 mps 714 mmHg 98%
    04:00 -2°C° 0 mm 0 mps 714 mmHg 98%
    05:00 -2°C° 0 mm 0 mps 714 mmHg 98%
    06:00 -2°C° 0 mm 0 mps 714 mmHg 98%
    07:00 -2°C° 0 mm 0 mps 715 mmHg 98%
    08:00 +1°C° 0 mm 0 mps 715 mmHg 89%
    09:00 +5°C° 0 mm 1 mps 716 mmHg 80%
    10:00 +9°C° 0 mm 1 mps 717 mmHg 70%
    11:00 +9°C° 0 mm 1 mps 716 mmHg 64%
    12:00 +10°C° 0 mm 1 mps 715 mmHg 59%
    13:00 +11°C° 0 mm 1 mps 715 mmHg 53%
    14:00 +11°C° 0 mm 1 mps 715 mmHg 55%
    15:00 +10°C° 0 mm 1 mps 715 mmHg 58%
    16:00 +10°C° 0 mm 1 mps 714 mmHg 61%
    17:00 +7°C° 0 mm 1 mps 714 mmHg 71%
    18:00 +5°C° 0 mm 1 mps 714 mmHg 82%
    19:00 +2°C° 0 mm 1 mps 714 mmHg 92%
    20:00 +2°C° 0 mm 1 mps 714 mmHg 93%
    21:00 +1°C° 0 mm 1 mps 714 mmHg 94%
    22:00 0°C° 0 mm 1 mps 714 mmHg 95%
    23:00 0°C° 0 mm 1 mps 714 mmHg 95%

    28 June, Wednesday

    Time Temperature Precipitation Wind Pressure Humidity
    00:00 0°C° 0 mm 1 mps 714 mmHg 94%
    01:00 -1°C° 0 mm 0 mps 714 mmHg 94%
    02:00 0°C° 0 mm 1 mps 714 mmHg 94%
    03:00 +1°C° 0 mm 1 mps 714 mmHg 93%
    04:00 +1°C° 0 mm 1 mps 714 mmHg 92%
    05:00 +1°C° 0 mm 1 mps 714 mmHg 91%
    06:00 +1°C° 0 mm 1 mps 714 mmHg 90%
    07:00 0°C° 0 mm 0 mps 714 mmHg 89%
    08:00 +3°C° 0 mm 0 mps 715 mmHg 77%
    09:00 +5°C° 0 mm 0 mps 715 mmHg 65%
    10:00 +8°C° 0 mm 0 mps 716 mmHg 53%
    11:00 +9°C° 0 mm 0 mps 715 mmHg 49%
    12:00 +11°C° 0 mm 1 mps 715 mmHg 45%
    13:00 +13°C° 0 mm 1 mps 714 mmHg 41%
    14:00 +12°C° 0 mm 1 mps 714 mmHg 49%
    15:00 +11°C° 0 mm 1 mps 714 mmHg 57%
    16:00 +9°C° 0 mm 1 mps 714 mmHg 64%
    17:00 +7°C° 0 mm 0 mps 714 mmHg 73%
    18:00 +5°C° 0 mm 0 mps 714 mmHg 82%
    19:00 +3°C° 0 mm 0 mps 714 mmHg 91%
    20:00 +2°C° 0 mm 0 mps 714 mmHg 91%
    21:00 +3°C° 0 mm 1 mps 714 mmHg 90%
    22:00 +2°C° 0 mm 1 mps 714 mmHg 89%
    23:00 +3°C° 0 mm 1 mps 714 mmHg 89%
    Show more